Regional Weather Roundup
Issued by NWS

Home | Current Version | Previous Version | Text Only | Print | Product List | Glossary On
Versions: 1 2 3 4 5 6 7 8 9 10 11 12 13 14 15 16 17 18 19 20 21 22 23 24 25 26 27 28 29 30 31 32 33 34 35 36 37 38 39 40 41 42 43 44 45 46 47 48 49 50
000
ASUS45 KCYS 101310
RWRWY

WYOMING REGIONAL WEATHER ROUNDUP
NATIONAL WEATHER SERVICE CHEYENNE WY
600 AM MST SAT DEC 10 2016

NOTE:  "FAIR" INDICATES FEW OR NO CLOUDS BELOW 12,000 FEET
WITH NO SIGNIFICANT WEATHER AND/OR OBSTRUCTIONS TO VISIBILITY.

WYZ001-101400-
YELLOWSTONE NATIONAL PARK

CITY           SKY/WX    TMP DP  RH WIND       PRES   REMARKS
LK YELLOWSTONE   N/A     26  24  92 VRB7      29.77F WCI  18
W YELLOWSTONE  NOT AVBL

$$
WYZ002>013-054>058-071-098>099-101400-
NORTHERN WYOMING

CITY           SKY/WX    TMP DP  RH WIND       PRES   REMARKS
JACKSON        CLOUDY    32  32 100 SW8       29.81F WCI  25
CODY           FAIR      12   8  84 CALM      29.77F
GREYBULL       FAIR       9   3  77 S3        29.85F
WORLAND        FAIR       6   2  83 CALM      29.85F
SHERIDAN       MOCLDY    11   5  77 CALM      29.87F
BUFFALO        FAIR       8   2  76 N5        29.80F WCI   0
GILLETTE       FAIR       2  -1  88 S9        29.86F WCI -13
HULETT         CLOUDY     3   0  85 MISG      29.90F
NEWCASTLE      FAIR       1  -4  78 CALM      29.94S

$$
WYZ014>020-022>026-101>103-101400-
CENTRAL WYOMING

CITY           SKY/WX    TMP DP  RH WIND       PRES   REMARKS
BIG PINEY      FAIR      16  14  92 CALM      29.87F
PINEDALE       PTSUNNY   25  25 100 SE8       29.88F WCI  16
DUBOIS         CLOUDY    32  27  80 NW10      29.74F WCI  24
LANDER         FAIR      14   6  70 E6        29.77F WCI   5
RIVERTON       FAIR      11   6  81 NW7       29.81F WCI   0
CASPER         FLURRIES  36  26  67 SW29G43   29.78F WCI  23
DOUGLAS        FAIR       8   4  83 S3        29.83F

$$
WYZ021-027>030-104>119-101400-
SOUTHERN WYOMING

CITY           SKY/WX    TMP DP  RH WIND       PRES   REMARKS
EVANSTON       LGT SNOW  33  31  92 SW16      29.97R FOG     WCI  23
KEMMERER         N/A     32  32 100 SW17      29.92F WCI  21
FORT BRIDGER   CLOUDY    35  35 100 W20G29    29.96F WCI  25
ROCK SPRINGS   CLOUDY    32  21  64 W8        29.94S WCI  25
DIXON          CLOUDY    32  24  70 W6        30.01F WCI  27
RAWLINS        FAIR      34  21  59 SW13G23   29.89F WCI  25
SARATOGA       CLOUDY    36  23  60 SW13G23   29.94F WCI  27
LARAMIE        CLOUDY    37  20  50 SW14        N/A  WCI  28
CHEYENNE       FAIR      43  20  39 W14G23    29.90F
TORRINGTON     FAIR      13   9  84 E7        29.90F WCI   3
PINE BLUFFS    PTSUNNY   21  18  86 W8        29.93F WCI  12

$$



USA.gov is the U.S. government's official web portal to all federal, state and local government web resources and services.